This is the latest recevied weather packets stored in our database for station/object KI5NXU. If no packets are shown the sender has not sent any weather packets the latest 10 day(s).
| Time | Temp. | Humidity | Pressure | Rain* | Wind** | Luminosity | Snow |
|---|---|---|---|---|---|---|---|
| 1778004027 | 28.89° C | 57% | 1004.7 hPa | 0 mm | - | 688 W/m² | - |
| 1778003726 | 28.89° C | 58% | 1004.7 hPa | 0 mm | - | 432 W/m² | - |
| 1778003423 | 28.89° C | 60% | 1004.9 hPa | 0 mm | - | 506 W/m² | - |
| 1778003120 | 28.89° C | 58% | 1004.7 hPa | 0 mm | - | 475 W/m² | - |
| 1778002816 | 28.89° C | 60% | 1004.9 hPa | 0 mm | - | 571 W/m² | - |
| 1778002513 | 28.89° C | 59% | 1004.8 hPa | 0 mm | - | 665 W/m² | - |
| 1778002210 | 28.33° C | 62% | 1004.9 hPa | 0 mm | - | 553 W/m² | - |
| 1778001909 | 28.33° C | 62% | 1004.9 hPa | 0 mm | - | 353 W/m² | - |
| 1778001609 | 28.89° C | 61% | 1004.6 hPa | 0 mm | - | 408 W/m² | - |
| 1778001305 | 28.89° C | 59% | 1004.9 hPa | 0 mm | - | 515 W/m² | - |
| 1778001002 | 28.89° C | 59% | 1004.9 hPa | 0 mm | - | 393 W/m² | - |
| 1778000698 | 28.33° C | 59% | 1004.7 hPa | 0 mm | - | 530 W/m² | - |
| 1778000394 | 28.33° C | 60% | 1004.6 hPa | 0 mm | - | 373 W/m² | - |
| 1778000090 | 28.33° C | 59% | 1004.6 hPa | 0 mm | - | 387 W/m² | - |
| 1777999785 | 28.33° C | 58% | 1004.4 hPa | 0 mm | - | 354 W/m² | - |
| 1777999482 | 28.33° C | 59% | 1004.6 hPa | 0 mm | - | 383 W/m² | - |
| 1777999180 | 28.33° C | 59% | 1004.5 hPa | 0 mm | - | 393 W/m² | - |
| 1777998879 | 28.33° C | 59% | 1004.3 hPa | 0 mm | - | 486 W/m² | - |
| 1777998578 | 28.33° C | 61% | 1004.5 hPa | 0 mm | - | 371 W/m² | - |
| 1777998273 | 27.78° C | 61% | 1004.1 hPa | 0 mm | - | 371 W/m² | - |
| 1777997970 | 27.78° C | 62% | 1004.3 hPa | 0 mm | - | 367 W/m² | - |
| 1777997666 | 27.78° C | 64% | 1004.6 hPa | 0 mm | - | 412 W/m² | - |
| 1777997364 | 27.78° C | 63% | 1004.6 hPa | 0 mm | - | 594 W/m² | - |
| 1777997062 | 27.78° C | 63% | 1004.6 hPa | 0 mm | - | 413 W/m² | - |
| 1777996758 | 27.78° C | 66% | 1004.5 hPa | 0 mm | - | 452 W/m² | - |
* Rain latest hour (hover to see other rain measurements)
** Current wind speed in m/s (hover to see current wind gust speed)